Tracking 34717 objects as of 14-Jul-2026
HD Live streaming from Space Station
objects crossing your sky now

BREEZE-M R/B

Track BREEZE-M R/B now!


NORAD ID: 32375
Int'l Code: 2007-058C
Perigee: 33,640.0 km
Apogee: 35,694.1 km
Inclination: 11.3 °
Period: 1,378.9 minutes
Semi major axis: 41038 km
RCS: 2.4245 m2 (large)
Launch date: December 9, 2007
Source: Commonwealth of Independent States (former USSR) (CIS)
Launch site: TYURATAM MISSILE AND SPACE COMPLEX (TTMTR)

Note: This is a ROCKET BODY
Your satellite tracking list
Your tracking list is empty




NASA's NSSDC Master Catalog

Two Line Element Set (TLE):
1 32375U 07058C   26195.24016260 -.00000110  00000-0  00000-0 0  9997
2 32375  11.3436  25.1278 0250269 219.0296 325.5760  1.04429284 70759
Source of the keplerian elements: AFSPC